Back to catalog

COSMOS 1188 DEB

LostHEO
NORAD 26677·DEBRIS·🇷🇺 Russia

Launched Jun 14, 1980 from Plesetsk Cosmodrome

Loading…

Next Passes (next 24 hours)

TLE

StaleSource: Space-Track

Epoch: Aug 16, 2025, 11:54 UTC

1 26677U 80050G   25228.49596742  .00000193  00000-0  00000-0 0  9999
2 26677  72.5294 192.9368 6000154 168.1775 354.5364  1.93165785223202

Track COSMOS 1188 DEB in real time with AllMySat

Download on the App Store